Location: Helsinki
(60.1699°N, 24.9384°E)
Time: 20:18:17
(UTC+02:00)

Transit 4A - Pass Details

Date: 28 October 2020
Orbit: 862 x 982 km, 66.8° (Epoch: 30 November)

Event Time Altitude Azimuth Distance (km) Brightness Sun altitude
Rises 17:20:28 0° 235° (SW) 3,631 12.6 -6.3°
Reaches altitude 10° 17:22:59 10° 236° (SW) 2,701 11.8 -6.6°
Maximum altitude 17:29:21 81° 324° (NW) 997 8.1 -7.4°
Drops below altitude 10° 17:35:50 10° 53° (NE) 2,748 9.8 -8.2°
Enters shadow 17:36:32 - 53° (NE) 3,007 10.0 -8.2°
Sets 17:38:25 0° 54° (NE) 3,697 - -8.5°
